Weather History for Penn Yan, NY

Change the Weather History Date:

Thursday, April 24, 2014

  Actual Average (KITH) Record (KITH)
Temperature  
Mean Temperature 42 °F -  
Max Temperature 53 °F 58 °F 85 °F (1946)
Min Temperature 33 °F 37 °F 6 °F (2011)
Degree Days  
Heating Degree Days 22    
Moisture  
Dew Point 20 °F    
Average Humidity 45    
Maximum Humidity 72    
Minimum Humidity 24    
Precipitation  
Precipitation 0.00 in - - ()
Sea Level Pressure  
Sea Level Pressure 30.08 in    
Wind  
Wind Speed 11 mph (NW)    
Max Wind Speed 16 mph    
Max Gust Speed 26 mph    
Visibility 10 miles    
Events      
Averages and records for this station are not official NWS values.
T = Trace of Precipitation, MM = Missing Value Source: NWS Daily Summary

Daily Weather History Graph

Daily Weather History Graph

Search for Another Location

Airport:

Trip Planner

Search our weather history database for the weather conditions in past years. The results will help you decide how hot, cold, wet, or windy it might be!

Date:

Astronomy

Apr. 24, 2014 Rise Set
Actual Time 6:12 AM EDT 8:00 PM EDT
Civil Twilight 5:42 AM EDT 8:30 PM EDT
Nautical Twilight 5:06 AM EDT 9:07 PM EDT
Astronomical Twilight 4:26 AM EDT 9:47 PM EDT
Moon 3:29 AM EDT (4/24) 3:07 PM EDT (4/24)
Length of Visible Light 14h 47m
Length of Day
13h 47m
Waning Crescent, 24% of the Moon is Illuminated
Apr 24
Waning Crescent
Apr 29
New
May 6
First Quarter
May 14
Full
May 21
Last Quarter

Hourly Weather History & Observations

Time (EDT) Temp. Windchill Dew Point Humidity Pressure Visibility Wind Dir Wind Speed Gust Speed Precip Events Conditions
12:53 AM 37.0 °F 28.9 °F 19.9 °F 50% 30.01 in 10.0 mi WNW 12.7 mph - N/A   Clear
1:53 AM 36.0 °F 28.5 °F 19.9 °F 52% 30.02 in 10.0 mi NW 10.4 mph 19.6 mph N/A   Clear
2:53 AM 35.1 °F 27.4 °F 21.0 °F 57% 30.03 in 10.0 mi NW 10.4 mph - N/A   Clear
3:53 AM 35.1 °F 27.4 °F 21.0 °F 57% 30.03 in 10.0 mi NW 10.4 mph - N/A   Clear
4:53 AM 34.0 °F 26.0 °F 21.0 °F 59% 30.04 in 10.0 mi NW 10.4 mph - N/A   Clear
5:53 AM 33.1 °F 25.5 °F 21.0 °F 61% 30.06 in 10.0 mi NW 9.2 mph - N/A   Clear
6:53 AM 34.0 °F 27.2 °F 19.9 °F 56% 30.09 in 10.0 mi NW 8.1 mph - N/A   Clear
7:53 AM 37.0 °F 28.9 °F 21.0 °F 52% 30.11 in 10.0 mi NW 12.7 mph - N/A   Clear
8:53 AM 39.9 °F 32.1 °F 21.0 °F 47% 30.11 in 10.0 mi NNW 13.8 mph 19.6 mph N/A   Clear
9:53 AM 42.1 °F 34.2 °F 19.9 °F 41% 30.12 in 10.0 mi NNW 16.1 mph 26.5 mph N/A   Clear
10:53 AM 44.1 °F 37.4 °F 19.0 °F 37% 30.12 in 10.0 mi NNW 13.8 mph 25.3 mph N/A   Clear
11:53 AM 46.0 °F 39.6 °F 18.0 °F 33% 30.12 in 10.0 mi NW 15.0 mph 26.5 mph N/A   Clear
12:53 PM 48.0 °F - 17.1 °F 29% 30.11 in 10.0 mi NW 15.0 mph 24.2 mph N/A   Clear
1:53 PM 50.0 °F - 16.0 °F 26% 30.10 in 10.0 mi NW 13.8 mph 24.2 mph N/A   Clear
2:53 PM 51.1 °F - 18.0 °F 27% 30.09 in 10.0 mi NNW 16.1 mph 21.9 mph N/A   Clear
3:53 PM 52.0 °F - 16.0 °F 24% 30.07 in 10.0 mi NNW 13.8 mph 24.2 mph N/A   Clear
4:53 PM 52.0 °F - 17.1 °F 25% 30.07 in 10.0 mi NNW 13.8 mph 18.4 mph N/A   Clear
5:53 PM 51.1 °F - 16.0 °F 25% 30.08 in 10.0 mi NNW 9.2 mph - N/A   Clear
6:53 PM 51.1 °F - 17.1 °F 26% 30.08 in 10.0 mi NNW 8.1 mph - N/A   Clear
7:53 PM 46.9 °F - 18.0 °F 32% 30.09 in 10.0 mi Variable 3.5 mph - N/A   Clear
8:53 PM 35.1 °F - 25.0 °F 67% 30.09 in 10.0 mi Calm Calm - N/A   Clear
9:53 PM 36.0 °F 33.3 °F 23.0 °F 59% 30.09 in 10.0 mi WSW 3.5 mph - N/A   Clear
10:53 PM 33.1 °F 28.7 °F 25.0 °F 72% 30.08 in 10.0 mi South 4.6 mph - N/A   Clear
11:53 PM 33.1 °F 30.0 °F 23.0 °F 66% 30.06 in 10.0 mi WSW 3.5 mph - N/A   Clear